• In India
  • List of Countries
  • For 7 days
  • Water Temperature
  • Satellite Maps
  • Weather Map
  • Weather Widgets
  • user-avatar
    Login

    Hourly Weather Salomin

    Today, 20 February, Wednesday

    Time Temperature Precipitation Wind Pressure Humidity
    00:00 +4°C° 0.4 mm 3 mps 739 mmHg 86%
    01:00 +5°C° 0 mm 2 mps 739 mmHg 90%
    02:00 +3°C° 0.1 mm 3 mps 739 mmHg 90%
    03:00 +3°C° 0.1 mm 3 mps 740 mmHg 90%
    04:00 +1°C° 0.1 mm 4 mps 740 mmHg 90%
    05:00 +1°C° 0 mm 4 mps 740 mmHg 90%
    06:00 +1°C° 0 mm 4 mps 740 mmHg 90%
    07:00 +1°C° 0 mm 4 mps 740 mmHg 89%
    08:00 +1°C° 0 mm 5 mps 741 mmHg 86%
    09:00 +2°C° 0 mm 5 mps 741 mmHg 82%
    10:00 +2°C° 0 mm 5 mps 741 mmHg 79%
    11:00 +2°C° 0.1 mm 6 mps 742 mmHg 76%
    12:00 +3°C° 0.1 mm 6 mps 742 mmHg 74%
    13:00 +3°C° 0.1 mm 6 mps 742 mmHg 72%
    14:00 +3°C° 0.1 mm 6 mps 742 mmHg 71%
    15:00 +2°C° 0.1 mm 6 mps 742 mmHg 71%
    16:00 +2°C° 0.1 mm 6 mps 742 mmHg 71%
    17:00 +2°C° 0.1 mm 6 mps 743 mmHg 73%
    18:00 +2°C° 0.1 mm 5 mps 743 mmHg 75%
    19:00 +2°C° 0.1 mm 5 mps 743 mmHg 77%
    20:00 +2°C° 0 mm 5 mps 743 mmHg 77%
    21:00 +2°C° 0 mm 5 mps 744 mmHg 77%
    22:00 +3°C° 0 mm 4 mps 744 mmHg 77%
    23:00 +1°C° 0 mm 4 mps 744 mmHg 80%

    Tomorrow, 21 February, Thursday

    Time Temperature Precipitation Wind Pressure Humidity
    00:00 +1°C° 0 mm 4 mps 744 mmHg 82%
    01:00 0°C° 0 mm 4 mps 745 mmHg 85%
    02:00 0°C° 0 mm 4 mps 745 mmHg 84%
    03:00 0°C° 0 mm 4 mps 745 mmHg 84%
    04:00 +2°C° 0 mm 3 mps 745 mmHg 83%
    05:00 +1°C° 0 mm 3 mps 745 mmHg 85%
    06:00 +1°C° 0 mm 3 mps 745 mmHg 86%
    07:00 +1°C° 0 mm 3 mps 745 mmHg 87%
    08:00 +2°C° 0.1 mm 3 mps 745 mmHg 87%
    09:00 +3°C° 0.1 mm 4 mps 745 mmHg 86%
    10:00 +3°C° 0.1 mm 4 mps 745 mmHg 86%
    11:00 +4°C° 0.1 mm 4 mps 745 mmHg 81%
    12:00 +5°C° 0.1 mm 5 mps 745 mmHg 77%
    13:00 +5°C° 0.1 mm 5 mps 744 mmHg 73%
    14:00 +5°C° 0.4 mm 5 mps 744 mmHg 75%
    15:00 +3°C° 0.4 mm 5 mps 743 mmHg 78%
    16:00 +4°C° 0.4 mm 4 mps 743 mmHg 80%
    17:00 +3°C° 0.9 mm 5 mps 743 mmHg 82%
    18:00 +3°C° 0.9 mm 5 mps 742 mmHg 83%
    19:00 +3°C° 0.9 mm 5 mps 742 mmHg 85%
    20:00 +3°C° 0.8 mm 5 mps 742 mmHg 86%
    21:00 +4°C° 0.8 mm 4 mps 742 mmHg 87%
    22:00 +3°C° 0.8 mm 4 mps 741 mmHg 88%
    23:00 +4°C° 0.3 mm 4 mps 741 mmHg 90%

    Day after tomorrow, 22 February, Friday

    Time Temperature Precipitation Wind Pressure Humidity
    00:00 +4°C° 0.3 mm 4 mps 741 mmHg 91%
    01:00 +4°C° 0.3 mm 3 mps 741 mmHg 93%
    02:00 +4°C° 0.4 mm 3 mps 741 mmHg 93%
    03:00 +4°C° 0.4 mm 3 mps 741 mmHg 94%
    04:00 +4°C° 0.4 mm 3 mps 741 mmHg 95%
    05:00 +1°C° 0.5 mm 5 mps 742 mmHg 92%
    06:00 -2°C° 0.5 mm 6 mps 742 mmHg 88%
    07:00 -5°C° 0.5 mm 8 mps 743 mmHg 85%
    08:00 -4°C° 0 mm 7 mps 745 mmHg 79%
    09:00 -4°C° 0 mm 7 mps 746 mmHg 73%
    10:00 -4°C° 0 mm 7 mps 747 mmHg 67%
    11:00 -4°C° 0 mm 7 mps 748 mmHg 64%
    12:00 -4°C° 0 mm 7 mps 749 mmHg 61%
    13:00 -4°C° 0 mm 6 mps 750 mmHg 58%
    14:00 -5°C° 0 mm 6 mps 751 mmHg 58%
    15:00 -5°C° 0 mm 6 mps 752 mmHg 57%
    16:00 -6°C° 0 mm 6 mps 752 mmHg 56%
    17:00 -6°C° 0 mm 6 mps 753 mmHg 56%
    18:00 -8°C° 0 mm 6 mps 753 mmHg 55%
    19:00 -7°C° 0 mm 5 mps 754 mmHg 54%
    20:00 -7°C° 0 mm 5 mps 754 mmHg 52%
    21:00 -7°C° 0 mm 5 mps 755 mmHg 50%
    22:00 -7°C° 0 mm 5 mps 755 mmHg 48%
    23:00 -8°C° 0 mm 5 mps 756 mmHg 46%

    23 February, Saturday

    Time Temperature Precipitation Wind Pressure Humidity
    00:00 -8°C° 0 mm 5 mps 756 mmHg 45%
    01:00 -8°C° 0 mm 5 mps 756 mmHg 44%
    02:00 -8°C° 0 mm 5 mps 756 mmHg 45%
    03:00 -8°C° 0 mm 5 mps 756 mmHg 46%
    04:00 -8°C° 0 mm 4 mps 756 mmHg 46%
    05:00 -9°C° 0 mm 4 mps 756 mmHg 47%
    06:00 -9°C° 0 mm 4 mps 757 mmHg 49%
    07:00 -9°C° 0 mm 4 mps 757 mmHg 50%
    08:00 -8°C° 0 mm 4 mps 757 mmHg 47%
    09:00 -8°C° 0 mm 4 mps 758 mmHg 43%
    10:00 -7°C° 0 mm 4 mps 758 mmHg 40%
    11:00 -5°C° 0 mm 4 mps 758 mmHg 37%
    12:00 -5°C° 0 mm 4 mps 758 mmHg 35%
    13:00 -4°C° 0 mm 4 mps 758 mmHg 33%
    14:00 -4°C° 0 mm 4 mps 757 mmHg 33%
    15:00 -4°C° 0 mm 4 mps 757 mmHg 34%
    16:00 -4°C° 0 mm 4 mps 757 mmHg 35%
    17:00 -5°C° 0 mm 4 mps 757 mmHg 38%
    18:00 -5°C° 0 mm 3 mps 757 mmHg 41%
    19:00 -6°C° 0 mm 3 mps 757 mmHg 44%
    20:00 -6°C° 0 mm 3 mps 757 mmHg 44%
    21:00 -5°C° 0 mm 3 mps 757 mmHg 45%
    22:00 -5°C° 0 mm 3 mps 757 mmHg 45%
    23:00 -4°C° 0 mm 2 mps 757 mmHg 45%

    24 February, Sunday

    Time Temperature Precipitation Wind Pressure Humidity
    00:00 -4°C° 0 mm 2 mps 757 mmHg 46%
    01:00 -4°C° 0 mm 2 mps 757 mmHg 46%
    02:00 -4°C° 0 mm 2 mps 757 mmHg 46%
    03:00 -4°C° 0 mm 2 mps 756 mmHg 47%
    04:00 -4°C° 0 mm 2 mps 756 mmHg 47%
    05:00 -4°C° 0 mm 2 mps 756 mmHg 47%
    06:00 -4°C° 0 mm 2 mps 756 mmHg 48%
    07:00 -4°C° 0 mm 2 mps 756 mmHg 48%
    08:00 -4°C° 0 mm 3 mps 756 mmHg 45%
    09:00 -2°C° 0 mm 3 mps 756 mmHg 41%
    10:00 -2°C° 0 mm 4 mps 755 mmHg 38%
    11:00 -2°C° 0 mm 4 mps 755 mmHg 39%
    12:00 -1°C° 0 mm 4 mps 755 mmHg 40%
    13:00 -1°C° 0 mm 4 mps 755 mmHg 40%
    14:00 -1°C° 0 mm 4 mps 754 mmHg 45%
    15:00 0°C° 0 mm 3 mps 754 mmHg 49%
    16:00 0°C° 0 mm 3 mps 754 mmHg 53%
    17:00 -1°C° 0 mm 3 mps 754 mmHg 57%
    18:00 -1°C° 0 mm 2 mps 754 mmHg 61%
    19:00 -2°C° 0 mm 2 mps 754 mmHg 65%
    20:00 -2°C° 0 mm 2 mps 754 mmHg 68%
    21:00 -2°C° 0 mm 2 mps 755 mmHg 71%
    22:00 -2°C° 0 mm 2 mps 755 mmHg 74%
    23:00 -2°C° 0 mm 2 mps 755 mmHg 77%

    25 February, Monday

    Time Temperature Precipitation Wind Pressure Humidity
    00:00 -2°C° 0 mm 2 mps 755 mmHg 80%
    01:00 -2°C° 0 mm 2 mps 755 mmHg 83%
    02:00 -2°C° 0 mm 2 mps 754 mmHg 84%
    03:00 -2°C° 0 mm 2 mps 754 mmHg 84%
    04:00 -2°C° 0 mm 2 mps 754 mmHg 85%
    05:00 -2°C° 0 mm 2 mps 754 mmHg 83%
    06:00 -1°C° 0 mm 2 mps 754 mmHg 81%
    07:00 -1°C° 0 mm 2 mps 754 mmHg 79%
    08:00 -1°C° 0 mm 2 mps 753 mmHg 77%
    09:00 0°C° 0 mm 3 mps 753 mmHg 76%
    10:00 0°C° 0 mm 3 mps 753 mmHg 74%
    11:00 0°C° 0 mm 4 mps 753 mmHg 70%
    12:00 +1°C° 0 mm 4 mps 752 mmHg 65%
    13:00 +2°C° 0 mm 5 mps 752 mmHg 60%
    14:00 +3°C° 0 mm 4 mps 751 mmHg 67%
    15:00 +3°C° 0 mm 4 mps 751 mmHg 73%
    16:00 +3°C° 0 mm 4 mps 751 mmHg 80%
    17:00 +1°C° 0 mm 4 mps 751 mmHg 83%
    18:00 0°C° 0 mm 4 mps 751 mmHg 85%
    19:00 -1°C° 0 mm 4 mps 752 mmHg 88%
    20:00 -2°C° 0 mm 4 mps 752 mmHg 89%
    21:00 -2°C° 0 mm 4 mps 752 mmHg 89%
    22:00 -2°C° 0 mm 4 mps 752 mmHg 90%
    23:00 -3°C° 0 mm 4 mps 751 mmHg 91%
    Show more